Time,TemperatureF,DewpointF,PressureIn,WindDirection,WindDirectionDegrees,WindSpeedMPH,WindSpeedGustMPH,Humidity,HourlyPrecipIn,Conditions,Clouds,dailyrainin,SoftwareType,DateUTC
2013-01-08 15:46:00,37.8,19.9,29.56,NW,315,1.3,1.3,48,0.00,,,0.00,VWS V14.01,2013-01-08 20:46:00,
2013-01-08 15:47:00,37.8,19.9,29.56,NW,315,1.3,1.3,48,0.00,,,0.00,VWS V14.01,2013-01-08 20:47:00,
2013-01-08 15:48:00,37.8,19.9,29.56,NW,315,1.3,1.3,48,0.00,,,0.00,VWS V14.01,2013-01-08 20:48:00,
2013-01-08 15:49:00,37.9,20.0,29.56,NW,315,1.3,1.3,48,0.00,,,0.00,VWS V14.01,2013-01-08 20:49:00,
2013-01-08 15:50:00,37.9,20.0,29.56,NW,315,1.3,1.3,48,0.00,,,0.00,VWS V14.01,2013-01-08 20:50:00,
2013-01-08 15:51:00,37.9,19.5,29.56,NW,315,1.3,1.3,47,0.00,,,0.00,VWS V14.01,2013-01-08 20:51:00,
2013-01-08 15:52:00,38.1,19.7,29.56,NW,315,1.3,1.3,47,0.00,,,0.00,VWS V14.01,2013-01-08 20:52:00,
2013-01-08 15:53:00,38.1,19.7,29.56,WNW,292,2.0,2.0,47,0.00,,,0.00,VWS V14.01,2013-01-08 20:53:00,
2013-01-08 15:54:00,38.3,19.9,29.56,WNW,292,2.0,2.0,47,0.00,,,0.00,VWS V14.01,2013-01-08 20:54:00,
2013-01-08 15:55:00,38.3,19.9,29.56,WNW,292,2.0,2.0,47,0.00,,,0.00,VWS V14.01,2013-01-08 20:55:00,
2013-01-08 15:56:00,38.1,19.7,29.56,WNW,292,2.0,2.0,47,0.00,,,0.00,VWS V14.01,2013-01-08 20:56:00,
2013-01-08 15:57:00,38.1,19.7,29.56,WNW,292,2.0,2.0,47,0.00,,,0.00,VWS V14.01,2013-01-08 20:57:00,
2013-01-08 15:58:00,37.9,19.5,29.56,WNW,292,2.0,2.0,47,0.00,,,0.00,VWS V14.01,2013-01-08 20:58:00,
2013-01-08 15:59:00,37.9,19.5,29.56,WNW,292,2.0,2.0,47,0.00,,,0.00,VWS V14.01,2013-01-08 20:59:00,
2013-01-08 16:00:00,37.9,19.5,29.56,WNW,292,2.0,2.0,47,0.00,,,0.00,VWS V14.01,2013-01-08 21:00:00,
2013-01-08 16:01:00,37.9,19.5,29.56,WNW,292,2.0,2.0,47,0.00,,,0.00,VWS V14.01,2013-01-08 21:01:00,
2013-01-08 16:02:00,37.9,19.5,29.56,WNW,292,2.0,2.0,47,0.00,,,0.00,VWS V14.01,2013-01-08 21:02:00,
2013-01-08 16:03:00,37.8,19.4,29.56,WNW,292,2.0,2.0,47,0.00,,,0.00,VWS V14.01,2013-01-08 21:03:00,
2013-01-08 16:04:00,37.8,19.4,29.56,WNW,292,2.0,2.0,47,0.00,,,0.00,VWS V14.01,2013-01-08 21:04:00,
2013-01-08 16:05:00,37.4,19.5,29.56,WNW,292,2.0,2.0,48,0.00,,,0.00,VWS V14.01,2013-01-08 21:05:00,
2013-01-08 16:06:00,37.4,19.5,29.56,SSW,202,2.9,2.9,48,0.00,,,0.00,VWS V14.01,2013-01-08 21:06:00,
2013-01-08 16:07:00,37.4,19.5,29.56,SSW,202,2.9,2.9,48,0.00,,,0.00,VWS V14.01,2013-01-08 21:07:00,
2013-01-08 16:08:00,36.9,19.5,29.56,SSW,202,2.9,2.9,49,0.00,,,0.00,VWS V14.01,2013-01-08 21:08:00,
2013-01-08 16:09:00,36.9,19.5,29.56,SSW,202,2.9,2.9,49,0.00,,,0.00,VWS V14.01,2013-01-08 21:09:00,
2013-01-08 16:10:00,36.7,19.3,29.56,SSW,202,2.9,2.9,49,0.00,,,0.00,VWS V14.01,2013-01-08 21:10:00,
2013-01-08 16:11:00,36.7,19.3,29.56,SSW,202,2.9,2.9,49,0.00,,,0.00,VWS V14.01,2013-01-08 21:11:00,
2013-01-08 16:12:00,36.7,19.3,29.56,SSW,202,2.9,2.9,49,0.00,,,0.00,VWS V14.01,2013-01-08 21:12:00,
2013-01-08 16:13:00,36.7,19.3,29.56,SSW,202,2.9,2.9,49,0.00,,,0.00,VWS V14.01,2013-01-08 21:13:00,
2013-01-08 16:14:00,36.5,19.2,29.56,SSW,202,2.9,2.9,49,0.00,,,0.00,VWS V14.01,2013-01-08 21:14:00,
2013-01-08 16:15:00,36.7,19.3,29.56,SSW,202,2.9,2.9,49,0.00,,,0.00,VWS V14.01,2013-01-08 21:15:00,
2013-01-08 16:16:00,36.7,19.3,29.56,SSW,202,2.9,2.9,49,0.00,,,0.00,VWS V14.01,2013-01-08 21:16:00,
2013-01-08 16:17:00,36.7,19.3,29.56,SSW,202,2.9,2.9,49,0.00,,,0.00,VWS V14.01,2013-01-08 21:17:00,
2013-01-08 16:18:00,36.7,19.3,29.56,SSW,202,2.9,2.9,49,0.00,,,0.00,VWS V14.01,2013-01-08 21:18:00,
2013-01-08 16:19:00,36.7,19.3,29.56,SSW,202,2.9,2.9,49,0.00,,,0.00,VWS V14.01,2013-01-08 21:19:00,
2013-01-08 16:20:00,36.7,19.3,29.56,SSW,202,2.9,2.9,49,0.00,,,0.00,VWS V14.01,2013-01-08 21:20:00,
2013-01-08 16:21:00,36.9,19.0,29.56,SSW,202,2.9,2.9,48,0.00,,,0.00,VWS V14.01,2013-01-08 21:21:00,
2013-01-08 16:22:00,36.7,19.3,29.56,SSW,202,2.9,2.9,49,0.00,,,0.00,VWS V14.01,2013-01-08 21:22:00,
2013-01-08 16:23:00,36.7,19.3,29.59,SSW,202,2.9,2.9,49,0.00,,,0.00,VWS V14.01,2013-01-08 21:23:00,
2013-01-08 16:24:00,36.3,19.0,29.59,SSW,202,2.9,2.9,49,0.00,,,0.00,VWS V14.01,2013-01-08 21:24:00,
2013-01-08 16:25:00,36.3,19.0,29.59,SSW,202,2.9,2.9,49,0.00,,,0.00,VWS V14.01,2013-01-08 21:25:00,
2013-01-08 16:26:00,36.5,19.2,29.59,SSW,202,2.9,2.9,49,0.00,,,0.00,VWS V14.01,2013-01-08 21:26:00,
2013-01-08 16:27:00,36.5,19.2,29.59,SSW,202,2.9,2.9,49,0.00,,,0.00,VWS V14.01,2013-01-08 21:27:00,
2013-01-08 16:28:00,36.3,19.0,29.59,SSW,202,2.9,2.9,49,0.00,,,0.00,VWS V14.01,2013-01-08 21:28:00,
2013-01-08 16:29:00,36.3,19.0,29.59,SSW,202,2.9,2.9,49,0.00,,,0.00,VWS V14.01,2013-01-08 21:29:00,
2013-01-08 16:30:00,36.3,19.0,29.59,SSW,202,2.9,2.9,49,0.00,,,0.00,VWS V14.01,2013-01-08 21:30:00,
2013-01-08 16:31:00,36.3,19.0,29.59,SSW,202,2.9,2.9,49,0.00,,,0.00,VWS V14.01,2013-01-08 21:31:00,
2013-01-08 16:32:00,36.3,19.0,29.59,SSW,202,2.9,2.9,49,0.00,,,0.00,VWS V14.01,2013-01-08 21:32:00,
2013-01-08 16:33:00,36.1,18.8,29.59,SSW,202,2.9,2.9,49,0.00,,,0.00,VWS V14.01,2013-01-08 21:33:00,
2013-01-08 16:34:00,36.1,18.8,29.59,SSW,202,2.9,2.9,49,0.00,,,0.00,VWS V14.01,2013-01-08 21:34:00,
2013-01-08 16:35:00,36.1,18.8,29.59,SSW,202,2.9,2.9,49,0.00,,,0.00,VWS V14.01,2013-01-08 21:35:00,
2013-01-08 16:36:00,36.3,19.0,29.59,SSW,202,2.9,2.9,49,0.00,,,0.00,VWS V14.01,2013-01-08 21:36:00,
2013-01-08 16:37:00,36.3,19.0,29.56,SSW,202,2.9,2.9,49,0.00,,,0.00,VWS V14.01,2013-01-08 21:37:00,
2013-01-08 16:38:00,36.3,19.0,29.56,SSW,202,2.9,2.9,49,0.00,,,0.00,VWS V14.01,2013-01-08 21:38:00,
2013-01-08 16:39:00,36.3,19.0,29.56,SSW,202,2.9,2.9,49,0.00,,,0.00,VWS V14.01,2013-01-08 21:39:00,
2013-01-08 16:40:00,36.1,18.8,29.56,SSW,202,2.9,2.9,49,0.00,,,0.00,VWS V14.01,2013-01-08 21:40:00,
2013-01-08 16:41:00,35.8,18.5,29.56,SSW,202,2.9,2.9,49,0.00,,,0.00,VWS V14.01,2013-01-08 21:41:00,
2013-01-08 16:42:00,35.8,18.5,29.56,SSW,202,2.9,2.9,49,0.00,,,0.00,VWS V14.01,2013-01-08 21:42:00,
2013-01-08 16:43:00,35.8,18.5,29.56,SSW,202,2.9,2.9,49,0.00,,,0.00,VWS V14.01,2013-01-08 21:43:00,
2013-01-08 16:44:00,35.8,18.5,29.56,SSW,202,2.9,2.9,49,0.00,,,0.00,VWS V14.01,2013-01-08 21:44:00,
2013-01-08 16:45:00,35.6,18.3,29.56,SSW,202,2.9,2.9,49,0.00,,,0.00,VWS V14.01,2013-01-08 21:45:00,
2013-01-08 16:46:00,35.6,18.3,29.56,SSW,202,2.9,2.9,49,0.00,,,0.00,VWS V14.01,2013-01-08 21:46:00,
2013-01-08 16:47:00,35.4,18.6,29.56,SSW,202,2.9,2.9,50,0.00,,,0.00,VWS V14.01,2013-01-08 21:47:00,
2013-01-08 16:48:00,35.4,18.6,29.56,SSW,202,2.9,2.9,50,0.00,,,0.00,VWS V14.01,2013-01-08 21:48:00,
2013-01-08 16:49:00,35.2,18.5,29.56,NE,45,2.2,2.9,50,0.00,,,0.00,VWS V14.01,2013-01-08 21:49:00,
2013-01-08 16:50:00,35.2,18.5,29.56,NE,45,2.2,2.2,50,0.00,,,0.00,VWS V14.01,2013-01-08 21:50:00,
2013-01-08 16:51:00,34.5,18.3,29.56,NE,45,2.2,2.2,51,0.00,,,0.00,VWS V14.01,2013-01-08 21:51:00,
2013-01-08 16:52:00,34.5,18.3,29.59,NE,45,2.2,2.2,51,0.00,,,0.00,VWS V14.01,2013-01-08 21:52:00,
2013-01-08 16:53:00,34.5,18.3,29.59,NE,45,2.2,2.2,51,0.00,,,0.00,VWS V14.01,2013-01-08 21:53:00,
2013-01-08 16:54:00,33.6,17.4,29.59,NE,45,2.2,2.2,51,0.00,,,0.00,VWS V14.01,2013-01-08 21:54:00,
2013-01-08 16:55:00,33.6,17.4,29.59,NE,45,2.2,2.2,51,0.00,,,0.00,VWS V14.01,2013-01-08 21:55:00,
2013-01-08 16:56:00,33.6,17.4,29.59,NE,45,2.2,2.2,51,0.00,,,0.00,VWS V14.01,2013-01-08 21:56:00,
2013-01-08 16:57:00,33.6,17.4,29.59,NE,45,2.2,2.2,51,0.00,,,0.00,VWS V14.01,2013-01-08 21:57:00,
2013-01-08 16:58:00,33.6,17.4,29.59,NE,45,2.2,2.2,51,0.00,,,0.00,VWS V14.01,2013-01-08 21:58:00,
2013-01-08 16:59:00,33.6,17.4,29.59,NE,45,2.2,2.2,51,0.00,,,0.00,VWS V14.01,2013-01-08 21:59:00,
2013-01-08 17:00:00,32.9,17.2,29.59,NE,45,2.2,2.2,52,0.00,,,0.00,VWS V14.01,2013-01-08 22:00:00,
2013-01-08 17:01:00,32.4,16.7,29.59,NE,45,2.2,2.2,52,0.00,,,0.00,VWS V14.01,2013-01-08 22:01:00,
2013-01-08 17:02:00,32.4,16.7,29.59,NE,45,2.2,2.2,52,0.00,,,0.00,VWS V14.01,2013-01-08 22:02:00,
2013-01-08 17:03:00,32.4,16.7,29.59,NE,45,2.2,2.2,52,0.00,,,0.00,VWS V14.01,2013-01-08 22:03:00,
2013-01-08 17:04:00,32.4,16.7,29.59,NE,45,2.2,2.2,52,0.00,,,0.00,VWS V14.01,2013-01-08 22:04:00,
2013-01-08 17:05:00,32.4,16.7,29.59,NE,45,2.2,2.2,52,0.00,,,0.00,VWS V14.01,2013-01-08 22:05:00,
2013-01-08 17:06:00,31.5,16.3,29.59,NE,45,2.2,2.2,53,0.00,,,0.00,VWS V14.01,2013-01-08 22:06:00,
2013-01-08 17:07:00,31.5,16.3,29.59,NE,45,2.2,2.2,53,0.00,,,0.00,VWS V14.01,2013-01-08 22:07:00,
2013-01-08 17:08:00,31.5,16.3,29.59,NE,45,2.2,2.2,53,0.00,,,0.00,VWS V14.01,2013-01-08 22:08:00,
2013-01-08 17:09:00,31.5,16.3,29.59,NE,45,2.2,2.2,53,0.00,,,0.00,VWS V14.01,2013-01-08 22:09:00,
2013-01-08 17:10:00,31.1,16.0,29.59,NE,45,2.2,2.2,53,0.00,,,0.00,VWS V14.01,2013-01-08 22:10:00,
2013-01-08 17:11:00,31.1,16.0,29.59,NE,45,2.2,2.2,53,0.00,,,0.00,VWS V14.01,2013-01-08 22:11:00,
2013-01-08 17:12:00,31.1,16.0,29.59,NE,45,2.2,2.2,53,0.00,,,0.00,VWS V14.01,2013-01-08 22:12:00,
2013-01-08 17:13:00,31.1,16.0,29.59,NE,45,2.2,2.2,53,0.00,,,0.00,VWS V14.01,2013-01-08 22:13:00,
2013-01-08 17:14:00,30.7,15.6,29.59,NE,45,2.2,2.2,53,0.00,,,0.00,VWS V14.01,2013-01-08 22:14:00,
2013-01-08 17:15:00,30.6,15.5,29.59,NE,45,2.2,2.2,53,0.00,,,0.00,VWS V14.01,2013-01-08 22:15:00,
2013-01-08 17:16:00,30.6,15.5,29.59,NE,45,2.2,2.2,53,0.00,,,0.00,VWS V14.01,2013-01-08 22:16:00,
2013-01-08 17:17:00,30.4,15.7,29.59,NE,45,2.2,2.2,54,0.00,,,0.00,VWS V14.01,2013-01-08 22:17:00,
2013-01-08 17:18:00,30.4,15.7,29.59,NE,45,2.2,2.2,54,0.00,,,0.00,VWS V14.01,2013-01-08 22:18:00,
2013-01-08 17:19:00,30.2,15.6,29.59,NE,45,2.2,2.2,54,0.00,,,0.00,VWS V14.01,2013-01-08 22:19:00,
2013-01-08 17:20:00,30.2,15.6,29.59,NE,45,2.2,2.2,54,0.00,,,0.00,VWS V14.01,2013-01-08 22:20:00,
2013-01-08 17:21:00,30.2,15.6,29.59,NE,45,2.2,2.2,54,0.00,,,0.00,VWS V14.01,2013-01-08 22:21:00,
2013-01-08 17:22:00,29.8,15.7,29.59,NE,45,2.2,2.2,55,0.00,,,0.00,VWS V14.01,2013-01-08 22:22:00,
2013-01-08 17:23:00,29.8,15.7,29.62,NE,45,2.2,2.2,55,0.00,,,0.00,VWS V14.01,2013-01-08 22:23:00,
2013-01-08 17:24:00,29.8,15.7,29.62,NE,45,2.2,2.2,55,0.00,,,0.00,VWS V14.01,2013-01-08 22:24:00,
2013-01-08 17:25:00,29.8,15.7,29.62,NE,45,2.2,2.2,55,0.00,,,0.00,VWS V14.01,2013-01-08 22:25:00,
2013-01-08 17:26:00,29.7,15.5,29.62,NE,45,2.2,2.2,55,0.00,,,0.00,VWS V14.01,2013-01-08 22:26:00,
2013-01-08 17:27:00,29.7,15.5,29.62,NE,45,2.2,2.2,55,0.00,,,0.00,VWS V14.01,2013-01-08 22:27:00,
2013-01-08 17:28:00,29.5,15.3,29.62,NE,45,2.2,2.2,55,0.00,,,0.00,VWS V14.01,2013-01-08 22:28:00,
2013-01-08 17:29:00,29.5,15.3,29.62,NE,45,2.2,2.2,55,0.00,,,0.00,VWS V14.01,2013-01-08 22:29:00,
2013-01-08 17:30:00,29.5,15.3,29.62,NE,45,2.2,2.2,55,0.00,,,0.00,VWS V14.01,2013-01-08 22:30:00,
2013-01-08 17:31:00,29.3,15.1,29.62,NE,45,2.2,2.2,55,0.00,,,0.00,VWS V14.01,2013-01-08 22:31:00,
2013-01-08 17:32:00,29.3,15.1,29.62,NE,45,2.2,2.2,55,0.00,,,0.00,VWS V14.01,2013-01-08 22:32:00,
2013-01-08 17:33:00,29.3,15.1,29.62,NE,45,2.2,2.2,55,0.00,,,0.00,VWS V14.01,2013-01-08 22:33:00,
2013-01-08 17:34:00,29.3,15.1,29.62,NE,45,2.2,2.2,55,0.00,,,0.00,VWS V14.01,2013-01-08 22:34:00,
2013-01-08 17:35:00,28.9,14.8,29.62,NE,45,2.2,2.2,55,0.00,,,0.00,VWS V14.01,2013-01-08 22:35:00,
2013-01-08 17:36:00,28.8,14.6,29.62,NE,45,2.2,2.2,55,0.00,,,0.00,VWS V14.01,2013-01-08 22:36:00,
2013-01-08 17:37:00,28.8,14.6,29.62,NE,45,2.2,2.2,55,0.00,,,0.00,VWS V14.01,2013-01-08 22:37:00,
2013-01-08 17:38:00,28.6,14.5,29.62,NE,45,2.2,2.2,55,0.00,,,0.00,VWS V14.01,2013-01-08 22:38:00,
2013-01-08 17:39:00,28.6,14.5,29.62,NE,45,2.2,2.2,55,0.00,,,0.00,VWS V14.01,2013-01-08 22:39:00,
2013-01-08 17:40:00,28.6,14.5,29.62,NE,45,2.2,2.2,55,0.00,,,0.00,VWS V14.01,2013-01-08 22:40:00,
2013-01-08 17:41:00,28.6,14.9,29.62,NE,45,2.2,2.2,56,0.00,,,0.00,VWS V14.01,2013-01-08 22:41:00,
2013-01-08 17:42:00,28.6,14.9,29.62,NE,45,2.2,2.2,56,0.00,,,0.00,VWS V14.01,2013-01-08 22:42:00,
2013-01-08 17:43:00,28.6,14.9,29.62,NE,45,2.2,2.2,56,0.00,,,0.00,VWS V14.01,2013-01-08 22:43:00,
2013-01-08 17:44:00,28.6,14.9,29.62,NE,45,2.2,2.2,56,0.00,,,0.00,VWS V14.01,2013-01-08 22:44:00,
2013-01-08 17:45:00,28.6,14.9,29.62,NE,45,2.2,2.2,56,0.00,,,0.00,VWS V14.01,2013-01-08 22:45:00,
2013-01-08 17:46:00,28.6,14.9,29.62,NE,45,2.2,2.2,56,0.00,,,0.00,VWS V14.01,2013-01-08 22:46:00,
2013-01-08 17:47:00,28.2,14.9,29.62,NE,45,2.2,2.2,57,0.00,,,0.00,VWS V14.01,2013-01-08 22:47:00,
2013-01-08 17:48:00,28.2,14.9,29.62,NE,45,2.2,2.2,57,0.00,,,0.00,VWS V14.01,2013-01-08 22:48:00,
2013-01-08 17:49:00,28.2,14.9,29.62,NE,45,2.2,2.2,57,0.00,,,0.00,VWS V14.01,2013-01-08 22:49:00,
2013-01-08 17:50:00,28.2,14.9,29.62,NE,45,2.2,2.2,57,0.00,,,0.00,VWS V14.01,2013-01-08 22:50:00,
2013-01-08 17:51:00,28.0,14.8,29.62,NE,45,2.2,2.2,57,0.00,,,0.00,VWS V14.01,2013-01-08 22:51:00,
2013-01-08 17:52:00,28.0,14.8,29.62,NE,45,2.2,2.2,57,0.00,,,0.00,VWS V14.01,2013-01-08 22:52:00,
2013-01-08 17:53:00,28.0,14.8,29.62,NE,45,2.2,2.2,57,0.00,,,0.00,VWS V14.01,2013-01-08 22:53:00,
2013-01-08 17:54:00,28.0,14.8,29.62,NE,45,2.2,2.2,57,0.00,,,0.00,VWS V14.01,2013-01-08 22:54:00,
2013-01-08 17:55:00,28.0,14.8,29.62,NE,45,2.2,2.2,57,0.00,,,0.00,VWS V14.01,2013-01-08 22:55:00,
2013-01-08 17:56:00,27.9,15.0,29.62,NE,45,2.2,2.2,58,0.00,,,0.00,VWS V14.01,2013-01-08 22:56:00,
2013-01-08 17:57:00,27.9,15.0,29.62,NE,45,2.2,2.2,58,0.00,,,0.00,VWS V14.01,2013-01-08 22:57:00,
2013-01-08 17:58:00,27.9,15.0,29.62,NE,45,2.2,2.2,58,0.00,,,0.00,VWS V14.01,2013-01-08 22:58:00,
2013-01-08 17:59:00,27.9,15.0,29.62,NE,45,2.2,2.2,58,0.00,,,0.00,VWS V14.01,2013-01-08 22:59:00,
2013-01-08 18:00:00,27.9,15.0,29.62,NE,45,2.2,2.2,58,0.00,,,0.00,VWS V14.01,2013-01-08 23:00:00,
2013-01-08 18:01:00,27.9,15.0,29.62,NE,45,2.2,2.2,58,0.00,,,0.00,VWS V14.01,2013-01-08 23:01:00,
2013-01-08 18:02:00,27.9,15.0,29.62,NE,45,2.2,2.2,58,0.00,,,0.00,VWS V14.01,2013-01-08 23:02:00,
2013-01-08 18:03:00,27.9,15.0,29.62,NE,45,2.2,2.2,58,0.00,,,0.00,VWS V14.01,2013-01-08 23:03:00,
2013-01-08 18:04:00,27.9,15.0,29.62,NE,45,2.2,2.2,58,0.00,,,0.00,VWS V14.01,2013-01-08 23:04:00,
2013-01-08 18:05:00,27.7,14.9,29.62,NE,45,2.2,2.2,58,0.00,,,0.00,VWS V14.01,2013-01-08 23:05:00,
2013-01-08 18:06:00,27.7,14.9,29.62,NE,45,2.2,2.2,58,0.00,,,0.00,VWS V14.01,2013-01-08 23:06:00,
2013-01-08 18:07:00,27.7,14.9,29.62,NE,45,2.2,2.2,58,0.00,,,0.00,VWS V14.01,2013-01-08 23:07:00,
2013-01-08 18:08:00,27.5,15.1,29.62,NE,45,2.2,2.2,59,0.00,,,0.00,VWS V14.01,2013-01-08 23:08:00,
2013-01-08 18:09:00,27.5,15.1,29.62,NE,45,2.2,2.2,59,0.00,,,0.00,VWS V14.01,2013-01-08 23:09:00,
2013-01-08 18:10:00,27.5,15.1,29.62,NE,45,2.2,2.2,59,0.00,,,0.00,VWS V14.01,2013-01-08 23:10:00,
2013-01-08 18:11:00,27.3,14.9,29.62,NE,45,2.2,2.2,59,0.00,,,0.00,VWS V14.01,2013-01-08 23:11:00,
2013-01-08 18:12:00,27.3,14.9,29.62,NE,45,2.2,2.2,59,0.00,,,0.00,VWS V14.01,2013-01-08 23:12:00,
2013-01-08 18:13:00,27.3,14.9,29.62,NE,45,2.2,2.2,59,0.00,,,0.00,VWS V14.01,2013-01-08 23:13:00,
2013-01-08 18:14:00,27.3,14.9,29.62,NE,45,2.2,2.2,59,0.00,,,0.00,VWS V14.01,2013-01-08 23:14:00,
2013-01-08 18:15:00,27.1,14.3,29.62,NE,45,2.2,2.2,58,0.00,,,0.00,VWS V14.01,2013-01-08 23:15:00,
2013-01-08 18:16:00,27.1,14.3,29.62,NE,45,2.2,2.2,58,0.00,,,0.00,VWS V14.01,2013-01-08 23:16:00,
2013-01-08 18:17:00,27.1,14.3,29.62,NE,45,2.2,2.2,58,0.00,,,0.00,VWS V14.01,2013-01-08 23:17:00,
2013-01-08 18:18:00,27.1,14.3,29.62,NE,45,2.2,2.2,58,0.00,,,0.00,VWS V14.01,2013-01-08 23:18:00,
2013-01-08 18:19:00,27.1,14.3,29.62,NE,45,2.2,2.2,58,0.00,,,0.00,VWS V14.01,2013-01-08 23:19:00,
2013-01-08 18:20:00,27.1,14.3,29.62,NE,45,2.2,2.2,58,0.00,,,0.00,VWS V14.01,2013-01-08 23:20:00,
2013-01-08 18:21:00,27.0,14.2,29.62,NE,45,2.2,2.2,58,0.00,,,0.00,VWS V14.01,2013-01-08 23:21:00,
2013-01-08 18:22:00,27.0,14.2,29.62,NE,45,2.2,2.2,58,0.00,,,0.00,VWS V14.01,2013-01-08 23:22:00,
2013-01-08 18:23:00,27.0,14.2,29.65,NE,45,2.2,2.2,58,0.00,,,0.00,VWS V14.01,2013-01-08 23:23:00,
2013-01-08 18:24:00,27.0,14.2,29.65,NE,45,2.2,2.2,58,0.00,,,0.00,VWS V14.01,2013-01-08 23:24:00,
2013-01-08 18:25:00,27.0,14.2,29.65,NE,45,2.2,2.2,58,0.00,,,0.00,VWS V14.01,2013-01-08 23:25:00,
2013-01-08 18:26:00,27.0,14.2,29.65,NE,45,2.2,2.2,58,0.00,,,0.00,VWS V14.01,2013-01-08 23:26:00,
2013-01-08 18:27:00,27.0,14.2,29.65,NE,45,2.2,2.2,58,0.00,,,0.00,VWS V14.01,2013-01-08 23:27:00,
2013-01-08 18:28:00,27.0,14.2,29.65,NE,45,2.2,2.2,58,0.00,,,0.00,VWS V14.01,2013-01-08 23:28:00,
2013-01-08 18:29:00,27.0,14.2,29.65,NE,45,2.2,2.2,58,0.00,,,0.00,VWS V14.01,2013-01-08 23:29:00,
2013-01-08 18:30:00,27.0,14.2,29.65,NE,45,2.2,2.2,58,0.00,,,0.00,VWS V14.01,2013-01-08 23:30:00,
2013-01-08 18:31:00,26.8,14.0,29.65,NE,45,2.2,2.2,58,0.00,,,0.00,VWS V14.01,2013-01-08 23:31:00,
2013-01-08 18:32:00,26.8,14.0,29.65,NE,45,2.2,2.2,58,0.00,,,0.00,VWS V14.01,2013-01-08 23:32:00,
2013-01-08 18:33:00,26.8,14.0,29.65,NE,45,2.2,2.2,58,0.00,,,0.00,VWS V14.01,2013-01-08 23:33:00,
2013-01-08 18:34:00,26.8,14.0,29.65,NE,45,2.2,2.2,58,0.00,,,0.00,VWS V14.01,2013-01-08 23:34:00,
2013-01-08 18:35:00,26.8,14.0,29.65,NE,45,2.2,2.2,58,0.00,,,0.00,VWS V14.01,2013-01-08 23:35:00,
2013-01-08 18:36:00,26.8,14.4,29.65,NE,45,2.2,2.2,59,0.00,,,0.00,VWS V14.01,2013-01-08 23:36:00,
2013-01-08 18:37:00,26.8,14.4,29.65,NE,45,2.2,2.2,59,0.00,,,0.00,VWS V14.01,2013-01-08 23:37:00,
2013-01-08 18:38:00,26.8,14.4,29.65,NE,45,2.2,2.2,59,0.00,,,0.00,VWS V14.01,2013-01-08 23:38:00,
2013-01-08 18:39:00,26.8,14.4,29.65,NE,45,2.2,2.2,59,0.00,,,0.00,VWS V14.01,2013-01-08 23:39:00,
2013-01-08 18:40:00,26.8,14.4,29.65,NE,45,2.2,2.2,59,0.00,,,0.00,VWS V14.01,2013-01-08 23:40:00,
2013-01-08 18:41:00,26.8,14.4,29.65,NE,45,2.2,2.2,59,0.00,,,0.00,VWS V14.01,2013-01-08 23:41:00,
2013-01-08 18:42:00,26.6,14.2,29.65,NE,45,2.2,2.2,59,0.00,,,0.00,VWS V14.01,2013-01-08 23:42:00,
2013-01-08 18:43:00,26.6,14.2,29.65,NE,45,2.2,2.2,59,0.00,,,0.00,VWS V14.01,2013-01-08 23:43:00,
2013-01-08 18:44:00,26.6,14.2,29.65,NE,45,2.2,2.2,59,0.00,,,0.00,VWS V14.01,2013-01-08 23:44:00,
2013-01-08 18:45:00,26.6,14.2,29.65,NE,45,2.2,2.2,59,0.00,,,0.00,VWS V14.01,2013-01-08 23:45:00,
2013-01-08 18:46:00,26.6,14.2,29.65,NE,45,2.2,2.2,59,0.00,,,0.00,VWS V14.01,2013-01-08 23:46:00,
2013-01-08 18:47:00,26.6,14.2,29.65,NE,45,2.2,2.2,59,0.00,,,0.00,VWS V14.01,2013-01-08 23:47:00,
2013-01-08 18:48:00,26.6,14.2,29.65,NE,45,2.2,2.2,59,0.00,,,0.00,VWS V14.01,2013-01-08 23:48:00,
2013-01-08 18:49:00,26.4,14.1,29.65,NE,45,2.2,2.2,59,0.00,,,0.00,VWS V14.01,2013-01-08 23:49:00,
2013-01-08 18:50:00,26.4,14.1,29.65,NE,45,2.2,2.2,59,0.00,,,0.00,VWS V14.01,2013-01-08 23:50:00,
2013-01-08 18:51:00,26.4,14.1,29.65,NE,45,2.2,2.2,59,0.00,,,0.00,VWS V14.01,2013-01-08 23:51:00,
2013-01-08 18:52:00,26.2,14.3,29.65,NE,45,2.2,2.2,60,0.00,,,0.00,VWS V14.01,2013-01-08 23:52:00,
2013-01-08 18:53:00,26.2,14.3,29.65,NE,45,2.2,2.2,60,0.00,,,0.00,VWS V14.01,2013-01-08 23:53:00,
2013-01-08 18:54:00,26.1,14.1,29.65,NE,45,2.2,2.2,60,0.00,,,0.00,VWS V14.01,2013-01-08 23:54:00,
2013-01-08 18:55:00,26.1,14.1,29.65,NE,45,2.2,2.2,60,0.00,,,0.00,VWS V14.01,2013-01-08 23:55:00,
2013-01-08 18:56:00,26.1,14.1,29.65,NE,45,2.2,2.2,60,0.00,,,0.00,VWS V14.01,2013-01-08 23:56:00,
2013-01-08 18:57:00,26.1,14.1,29.65,NE,45,2.2,2.2,60,0.00,,,0.00,VWS V14.01,2013-01-08 23:57:00,
2013-01-08 18:58:00,26.1,14.1,29.65,NE,45,2.2,2.2,60,0.00,,,0.00,VWS V14.01,2013-01-08 23:58:00,
2013-01-08 18:59:00,26.1,14.1,29.65,NE,45,2.2,2.2,60,0.00,,,0.00,VWS V14.01,2013-01-08 23:59:00,
2013-01-08 19:00:00,26.1,14.1,29.65,NE,45,2.2,2.2,60,0.00,,,0.00,VWS V14.01,2013-01-09 00:00:00,
2013-01-08 19:01:00,26.1,14.1,29.65,NE,45,2.2,2.2,60,0.00,,,0.00,VWS V14.01,2013-01-09 00:01:00,
2013-01-08 19:02:00,26.1,14.1,29.65,NE,45,2.2,2.2,60,0.00,,,0.00,VWS V14.01,2013-01-09 00:02:00,
2013-01-08 19:03:00,26.1,14.1,29.65,NE,45,2.2,2.2,60,0.00,,,0.00,VWS V14.01,2013-01-09 00:03:00,
2013-01-08 19:04:00,26.1,14.1,29.65,NE,45,2.2,2.2,60,0.00,,,0.00,VWS V14.01,2013-01-09 00:04:00,
2013-01-08 19:05:00,26.1,14.5,29.65,NE,45,2.2,2.2,61,0.00,,,0.00,VWS V14.01,2013-01-09 00:05:00,
2013-01-08 19:06:00,25.9,14.3,29.65,NE,45,2.2,2.2,61,0.00,,,0.00,VWS V14.01,2013-01-09 00:06:00,
2013-01-08 19:07:00,25.9,14.3,29.65,NE,45,2.2,2.2,61,0.00,,,0.00,VWS V14.01,2013-01-09 00:07:00,
2013-01-08 19:08:00,25.9,14.3,29.65,NE,45,2.2,2.2,61,0.00,,,0.00,VWS V14.01,2013-01-09 00:08:00,
2013-01-08 19:09:00,25.9,14.3,29.65,NE,45,2.2,2.2,61,0.00,,,0.00,VWS V14.01,2013-01-09 00:09:00,
2013-01-08 19:10:00,25.9,14.3,29.65,NE,45,2.2,2.2,61,0.00,,,0.00,VWS V14.01,2013-01-09 00:10:00,
2013-01-08 19:11:00,25.9,14.3,29.65,NE,45,2.2,2.2,61,0.00,,,0.00,VWS V14.01,2013-01-09 00:11:00,
2013-01-08 19:12:00,25.9,14.3,29.65,NE,45,2.2,2.2,61,0.00,,,0.00,VWS V14.01,2013-01-09 00:12:00,
2013-01-08 19:13:00,25.9,14.3,29.65,NE,45,2.2,2.2,61,0.00,,,0.00,VWS V14.01,2013-01-09 00:13:00,
2013-01-08 19:14:00,25.7,14.5,29.65,NE,45,2.2,2.2,62,0.00,,,0.00,VWS V14.01,2013-01-09 00:14:00,
2013-01-08 19:15:00,25.7,14.5,29.65,NE,45,2.2,2.2,62,0.00,,,0.00,VWS V14.01,2013-01-09 00:15:00,
2013-01-08 19:16:00,25.7,14.5,29.65,NE,45,2.2,2.2,62,0.00,,,0.00,VWS V14.01,2013-01-09 00:16:00,
2013-01-08 19:17:00,25.7,14.1,29.65,NE,45,2.2,2.2,61,0.00,,,0.00,VWS V14.01,2013-01-09 00:17:00,
2013-01-08 19:18:00,25.7,14.1,29.65,NE,45,2.2,2.2,61,0.00,,,0.00,VWS V14.01,2013-01-09 00:18:00,
2013-01-08 19:19:00,25.7,14.1,29.65,NE,45,2.2,2.2,61,0.00,,,0.00,VWS V14.01,2013-01-09 00:19:00,
2013-01-08 19:20:00,25.7,14.1,29.65,NE,45,2.2,2.2,61,0.00,,,0.00,VWS V14.01,2013-01-09 00:20:00,
2013-01-08 19:21:00,25.7,14.1,29.65,NE,45,2.2,2.2,61,0.00,,,0.00,VWS V14.01,2013-01-09 00:21:00,
2013-01-08 19:22:00,25.7,14.1,29.65,NE,45,2.2,2.2,61,0.00,,,0.00,VWS V14.01,2013-01-09 00:22:00,
2013-01-08 19:23:00,25.7,14.1,29.65,NE,45,2.2,2.2,61,0.00,,,0.00,VWS V14.01,2013-01-09 00:23:00,
2013-01-08 19:24:00,25.7,14.1,29.65,NE,45,2.2,2.2,61,0.00,,,0.00,VWS V14.01,2013-01-09 00:24:00,
2013-01-08 19:25:00,25.7,14.1,29.65,NE,45,2.2,2.2,61,0.00,,,0.00,VWS V14.01,2013-01-09 00:25:00,
2013-01-08 19:26:00,25.7,14.1,29.65,NE,45,2.2,2.2,61,0.00,,,0.00,VWS V14.01,2013-01-09 00:26:00,
2013-01-08 19:27:00,25.7,14.1,29.65,NE,45,2.2,2.2,61,0.00,,,0.00,VWS V14.01,2013-01-09 00:27:00,
2013-01-08 19:28:00,25.5,14.0,29.65,NE,45,2.2,2.2,61,0.00,,,0.00,VWS V14.01,2013-01-09 00:28:00,
2013-01-08 19:29:00,25.5,14.0,29.65,NE,45,2.2,2.2,61,0.00,,,0.00,VWS V14.01,2013-01-09 00:29:00,
2013-01-08 19:30:00,25.3,13.8,29.65,NE,45,2.2,2.2,61,0.00,,,0.00,VWS V14.01,2013-01-09 00:30:00,
2013-01-08 19:31:00,25.2,13.6,29.65,NE,45,2.2,2.2,61,0.00,,,0.00,VWS V14.01,2013-01-09 00:31:00,
2013-01-08 19:32:00,25.2,13.6,29.65,NE,45,2.2,2.2,61,0.00,,,0.00,VWS V14.01,2013-01-09 00:32:00,
2013-01-08 19:33:00,25.0,13.4,29.65,NE,45,2.2,2.2,61,0.00,,,0.00,VWS V14.01,2013-01-09 00:33:00,
2013-01-08 19:34:00,25.0,13.4,29.65,NE,45,2.2,2.2,61,0.00,,,0.00,VWS V14.01,2013-01-09 00:34:00,
2013-01-08 19:35:00,25.0,13.8,29.65,NE,45,2.2,2.2,62,0.00,,,0.00,VWS V14.01,2013-01-09 00:35:00,
2013-01-08 19:36:00,25.0,13.8,29.65,NE,45,2.2,2.2,62,0.00,,,0.00,VWS V14.01,2013-01-09 00:36:00,
2013-01-08 19:37:00,25.0,13.8,29.65,NE,45,2.2,2.2,62,0.00,,,0.00,VWS V14.01,2013-01-09 00:37:00,
2013-01-08 19:38:00,25.0,13.8,29.65,NE,45,2.2,2.2,62,0.00,,,0.00,VWS V14.01,2013-01-09 00:38:00,
2013-01-08 19:39:00,25.0,13.8,29.65,NE,45,2.2,2.2,62,0.00,,,0.00,VWS V14.01,2013-01-09 00:39:00,
2013-01-08 19:40:00,25.0,13.8,29.65,NE,45,2.2,2.2,62,0.00,,,0.00,VWS V14.01,2013-01-09 00:40:00,
2013-01-08 19:41:00,25.0,13.8,29.65,NE,45,2.2,2.2,62,0.00,,,0.00,VWS V14.01,2013-01-09 00:41:00,
2013-01-08 19:42:00,25.0,13.8,29.65,NE,45,2.2,2.2,62,0.00,,,0.00,VWS V14.01,2013-01-09 00:42:00,
2013-01-08 19:43:00,25.0,13.8,29.65,NE,45,2.2,2.2,62,0.00,,,0.00,VWS V14.01,2013-01-09 00:43:00,
2013-01-08 19:44:00,25.0,13.8,29.65,NE,45,2.2,2.2,62,0.00,,,0.00,VWS V14.01,2013-01-09 00:44:00,
2013-01-08 19:45:00,25.0,13.8,29.65,NE,45,2.2,2.2,62,0.00,,,0.00,VWS V14.01,2013-01-09 00:45:00,
2013-01-08 19:46:00,25.0,13.8,29.65,NE,45,2.2,2.2,62,0.00,,,0.00,VWS V14.01,2013-01-09 00:46:00,
2013-01-08 19:47:00,25.0,13.8,29.65,NE,45,2.2,2.2,62,0.00,,,0.00,VWS V14.01,2013-01-09 00:47:00,
2013-01-08 19:48:00,25.0,13.8,29.65,NE,45,2.2,2.2,62,0.00,,,0.00,VWS V14.01,2013-01-09 00:48:00,
2013-01-08 19:49:00,25.0,13.8,29.65,NE,45,2.2,2.2,62,0.00,,,0.00,VWS V14.01,2013-01-09 00:49:00,
2013-01-08 19:50:00,25.0,13.8,29.65,NE,45,2.2,2.2,62,0.00,,,0.00,VWS V14.01,2013-01-09 00:50:00,
2013-01-08 19:51:00,25.0,13.8,29.65,ESE,112,1.1,2.2,62,0.00,,,0.00,VWS V14.01,2013-01-09 00:51:00,
2013-01-08 19:52:00,25.0,13.8,29.65,ESE,112,1.1,1.1,62,0.00,,,0.00,VWS V14.01,2013-01-09 00:52:00,
2013-01-08 19:53:00,24.8,13.6,29.65,ESE,112,1.1,1.1,62,0.00,,,0.00,VWS V14.01,2013-01-09 00:53:00,
2013-01-08 19:54:00,24.8,13.6,29.65,ESE,112,1.1,1.1,62,0.00,,,0.00,VWS V14.01,2013-01-09 00:54:00,
2013-01-08 19:55:00,24.6,13.5,29.65,SW,225,1.3,1.3,62,0.00,,,0.00,VWS V14.01,2013-01-09 00:55:00,
2013-01-08 19:56:00,24.6,13.5,29.65,SW,225,1.3,1.3,62,0.00,,,0.00,VWS V14.01,2013-01-09 00:56:00,
2013-01-08 19:57:00,24.6,13.5,29.65,SW,225,1.3,1.3,62,0.00,,,0.00,VWS V14.01,2013-01-09 00:57:00,
2013-01-08 19:58:00,24.4,13.7,29.65,SW,225,1.3,1.3,63,0.00,,,0.00,VWS V14.01,2013-01-09 00:58:00,
2013-01-08 19:59:00,24.4,13.7,29.65,SW,225,1.3,1.3,63,0.00,,,0.00,VWS V14.01,2013-01-09 00:59:00,
2013-01-08 20:00:00,24.4,13.7,29.65,SW,225,1.3,1.3,63,0.00,,,0.00,VWS V14.01,2013-01-09 01:00:00,
2013-01-08 20:01:00,24.4,13.7,29.65,SW,225,1.3,1.3,63,0.00,,,0.00,VWS V14.01,2013-01-09 01:01:00,
2013-01-08 20:02:00,24.4,13.7,29.65,SW,225,1.3,1.3,63,0.00,,,0.00,VWS V14.01,2013-01-09 01:02:00,
2013-01-08 20:03:00,24.4,13.7,29.65,SW,225,1.3,1.3,63,0.00,,,0.00,VWS V14.01,2013-01-09 01:03:00,
2013-01-08 20:04:00,24.4,13.7,29.65,SW,225,1.3,1.3,63,0.00,,,0.00,VWS V14.01,2013-01-09 01:04:00,
2013-01-08 20:05:00,24.4,13.7,29.65,SW,225,1.3,1.3,63,0.00,,,0.00,VWS V14.01,2013-01-09 01:05:00,
2013-01-08 20:06:00,24.3,13.5,29.65,SW,225,1.3,1.3,63,0.00,,,0.00,VWS V14.01,2013-01-09 01:06:00,
2013-01-08 20:07:00,24.3,13.5,29.65,SW,225,1.3,1.3,63,0.00,,,0.00,VWS V14.01,2013-01-09 01:07:00,
2013-01-08 20:08:00,24.3,13.5,29.65,SW,225,1.3,1.3,63,0.00,,,0.00,VWS V14.01,2013-01-09 01:08:00,
2013-01-08 20:09:00,24.3,13.9,29.65,SW,225,1.3,1.3,64,0.00,,,0.00,VWS V14.01,2013-01-09 01:09:00,
2013-01-08 20:10:00,24.1,13.7,29.65,SW,225,1.3,1.3,64,0.00,,,0.00,VWS V14.01,2013-01-09 01:10:00,
2013-01-08 20:11:00,24.1,13.7,29.65,SW,225,1.3,1.3,64,0.00,,,0.00,VWS V14.01,2013-01-09 01:11:00,
2013-01-08 20:12:00,24.1,13.7,29.65,SW,225,1.3,1.3,64,0.00,,,0.00,VWS V14.01,2013-01-09 01:12:00,
2013-01-08 20:13:00,24.1,13.7,29.65,SW,225,1.3,1.3,64,0.00,,,0.00,VWS V14.01,2013-01-09 01:13:00,
2013-01-08 20:14:00,24.1,13.7,29.65,ESE,112,1.6,1.6,64,0.00,,,0.00,VWS V14.01,2013-01-09 01:14:00,
2013-01-08 20:15:00,24.1,13.7,29.65,ESE,112,1.6,1.6,64,0.00,,,0.00,VWS V14.01,2013-01-09 01:15:00,
2013-01-08 20:16:00,24.1,13.3,29.65,ESE,112,1.6,1.6,63,0.00,,,0.00,VWS V14.01,2013-01-09 01:16:00,
2013-01-08 20:17:00,24.1,13.3,29.65,ESE,112,1.6,1.6,63,0.00,,,0.00,VWS V14.01,2013-01-09 01:17:00,
2013-01-08 20:18:00,24.1,13.3,29.65,ESE,112,1.6,1.6,63,0.00,,,0.00,VWS V14.01,2013-01-09 01:18:00,
2013-01-08 20:19:00,23.9,13.1,29.65,WSW,248,0.0,1.6,63,0.00,,,0.00,VWS V14.01,2013-01-09 01:19:00,
2013-01-08 20:20:00,23.9,13.1,29.65,WSW,248,0.0,0.0,63,0.00,,,0.00,VWS V14.01,2013-01-09 01:20:00,
2013-01-08 20:21:00,23.9,13.5,29.65,WSW,248,0.0,0.0,64,0.00,,,0.00,VWS V14.01,2013-01-09 01:21:00,
2013-01-08 20:22:00,23.9,13.5,29.65,WSW,248,0.0,0.0,64,0.00,,,0.00,VWS V14.01,2013-01-09 01:22:00,
2013-01-08 20:23:00,23.9,13.5,29.65,ESE,112,1.6,1.6,64,0.00,,,0.00,VWS V14.01,2013-01-09 01:23:00,
2013-01-08 20:24:00,23.9,13.5,29.65,ESE,112,1.6,1.6,64,0.00,,,0.00,VWS V14.01,2013-01-09 01:24:00,
2013-01-08 20:25:00,23.9,13.5,29.65,ESE,112,1.6,1.6,64,0.00,,,0.00,VWS V14.01,2013-01-09 01:25:00,
2013-01-08 20:26:00,23.9,13.5,29.65,ESE,112,1.6,1.6,64,0.00,,,0.00,VWS V14.01,2013-01-09 01:26:00,
2013-01-08 20:27:00,23.9,13.5,29.65,ESE,112,1.6,1.6,64,0.00,,,0.00,VWS V14.01,2013-01-09 01:27:00,
2013-01-08 20:28:00,23.9,13.5,29.65,ESE,112,1.6,1.6,64,0.00,,,0.00,VWS V14.01,2013-01-09 01:28:00,
2013-01-08 20:29:00,23.9,13.5,29.65,ESE,112,1.6,1.6,64,0.00,,,0.00,VWS V14.01,2013-01-09 01:29:00,
2013-01-08 20:30:00,23.9,13.5,29.65,ESE,112,1.6,1.6,64,0.00,,,0.00,VWS V14.01,2013-01-09 01:30:00,
2013-01-08 20:31:00,23.9,13.5,29.65,ESE,112,1.6,1.6,64,0.00,,,0.00,VWS V14.01,2013-01-09 01:31:00,
2013-01-08 20:32:00,23.9,13.5,29.65,ESE,112,1.6,1.6,64,0.00,,,0.00,VWS V14.01,2013-01-09 01:32:00,
2013-01-08 20:33:00,23.9,13.5,29.65,West,270,2.5,2.5,64,0.00,,,0.00,VWS V14.01,2013-01-09 01:33:00,
2013-01-08 20:34:00,23.9,13.5,29.65,West,270,2.5,2.5,64,0.00,,,0.00,VWS V14.01,2013-01-09 01:34:00,
2013-01-08 20:35:00,23.9,13.9,29.65,West,270,2.5,2.5,65,0.00,,,0.00,VWS V14.01,2013-01-09 01:35:00,
2013-01-08 20:36:00,23.7,13.7,29.65,West,270,2.5,2.5,65,0.00,,,0.00,VWS V14.01,2013-01-09 01:36:00,
2013-01-08 20:37:00,23.7,13.7,29.65,West,270,2.5,2.5,65,0.00,,,0.00,VWS V14.01,2013-01-09 01:37:00,
2013-01-08 20:38:00,23.7,13.7,29.65,West,270,2.5,2.5,65,0.00,,,0.00,VWS V14.01,2013-01-09 01:38:00,
2013-01-08 20:39:00,23.7,13.7,29.65,West,270,2.5,2.5,65,0.00,,,0.00,VWS V14.01,2013-01-09 01:39:00,
2013-01-08 20:40:00,23.5,13.5,29.65,West,270,2.5,2.5,65,0.00,,,0.00,VWS V14.01,2013-01-09 01:40:00,
2013-01-08 20:41:00,23.5,13.5,29.65,West,270,2.5,2.5,65,0.00,,,0.00,VWS V14.01,2013-01-09 01:41:00,
2013-01-08 20:42:00,23.7,13.7,29.65,West,270,2.5,2.5,65,0.00,,,0.00,VWS V14.01,2013-01-09 01:42:00,
2013-01-08 20:43:00,23.7,13.7,29.65,West,270,2.5,2.5,65,0.00,,,0.00,VWS V14.01,2013-01-09 01:43:00,
2013-01-08 20:44:00,23.7,13.7,29.65,West,270,2.5,2.5,65,0.00,,,0.00,VWS V14.01,2013-01-09 01:44:00,
2013-01-08 20:45:00,23.7,13.7,29.65,West,270,2.5,2.5,65,0.00,,,0.00,VWS V14.01,2013-01-09 01:45:00,
2013-01-08 20:46:00,23.7,13.7,29.65,West,270,2.5,2.5,65,0.00,,,0.00,VWS V14.01,2013-01-09 01:46:00,
2013-01-08 20:47:00,23.9,13.9,29.65,West,270,2.5,2.5,65,0.00,,,0.00,VWS V14.01,2013-01-09 01:47:00,
2013-01-08 20:48:00,23.9,13.9,29.65,West,270,2.5,2.5,65,0.00,,,0.00,VWS V14.01,2013-01-09 01:48:00,
2013-01-08 20:49:00,23.7,13.7,29.65,West,270,2.5,2.5,65,0.00,,,0.00,VWS V14.01,2013-01-09 01:49:00,
2013-01-08 20:50:00,23.7,13.7,29.65,West,270,2.5,2.5,65,0.00,,,0.00,VWS V14.01,2013-01-09 01:50:00,
2013-01-08 20:51:00,23.7,13.7,29.65,West,270,2.5,2.5,65,0.00,,,0.00,VWS V14.01,2013-01-09 01:51:00,
2013-01-08 20:52:00,23.7,13.7,29.65,West,270,2.5,2.5,65,0.00,,,0.00,VWS V14.01,2013-01-09 01:52:00,
2013-01-08 20:53:00,23.7,13.7,29.65,West,270,2.5,2.5,65,0.00,,,0.00,VWS V14.01,2013-01-09 01:53:00,
2013-01-08 20:54:00,23.5,13.5,29.65,West,270,2.5,2.5,65,0.00,,,0.00,VWS V14.01,2013-01-09 01:54:00,
2013-01-08 20:55:00,23.5,13.5,29.65,West,270,2.5,2.5,65,0.00,,,0.00,VWS V14.01,2013-01-09 01:55:00,
2013-01-08 20:56:00,23.4,13.4,29.65,West,270,2.5,2.5,65,0.00,,,0.00,VWS V14.01,2013-01-09 01:56:00,
2013-01-08 20:57:00,23.4,13.4,29.65,West,270,2.5,2.5,65,0.00,,,0.00,VWS V14.01,2013-01-09 01:57:00,
2013-01-08 20:58:00,23.5,13.5,29.65,West,270,2.5,2.5,65,0.00,,,0.00,VWS V14.01,2013-01-09 01:58:00,
2013-01-08 20:59:00,23.5,13.5,29.65,West,270,2.5,2.5,65,0.00,,,0.00,VWS V14.01,2013-01-09 01:59:00,
2013-01-08 21:00:00,23.5,13.5,29.65,West,270,2.5,2.5,65,0.00,,,0.00,VWS V14.01,2013-01-09 02:00:00,
2013-01-08 21:01:00,23.5,13.5,29.65,ESE,112,2.0,2.0,65,0.00,,,0.00,VWS V14.01,2013-01-09 02:01:00,
2013-01-08 21:02:00,23.5,13.5,29.65,ESE,112,2.0,2.0,65,0.00,,,0.00,VWS V14.01,2013-01-09 02:02:00,
2013-01-08 21:03:00,23.5,13.5,29.65,ESE,112,2.0,2.0,65,0.00,,,0.00,VWS V14.01,2013-01-09 02:03:00,
2013-01-08 21:04:00,23.5,13.5,29.65,ESE,112,2.0,2.0,65,0.00,,,0.00,VWS V14.01,2013-01-09 02:04:00,
2013-01-08 21:05:00,23.4,13.4,29.65,ESE,112,2.0,2.0,65,0.00,,,0.00,VWS V14.01,2013-01-09 02:05:00,
2013-01-08 21:06:00,23.4,13.4,29.65,ESE,112,2.0,2.0,65,0.00,,,0.00,VWS V14.01,2013-01-09 02:06:00,
2013-01-08 21:07:00,23.2,13.2,29.65,ESE,112,2.0,2.0,65,0.00,,,0.00,VWS V14.01,2013-01-09 02:07:00,
2013-01-08 21:08:00,23.2,13.2,29.65,ESE,112,2.0,2.0,65,0.00,,,0.00,VWS V14.01,2013-01-09 02:08:00,
2013-01-08 21:09:00,23.2,13.2,29.68,ESE,112,2.0,2.0,65,0.00,,,0.00,VWS V14.01,2013-01-09 02:09:00,
2013-01-08 21:10:00,23.2,13.2,29.68,ESE,112,2.0,2.0,65,0.00,,,0.00,VWS V14.01,2013-01-09 02:10:00,
2013-01-08 21:11:00,23.0,13.4,29.68,ESE,112,2.0,2.0,66,0.00,,,0.00,VWS V14.01,2013-01-09 02:11:00,
2013-01-08 21:12:00,23.2,13.5,29.68,ESE,112,2.0,2.0,66,0.00,,,0.00,VWS V14.01,2013-01-09 02:12:00,
2013-01-08 21:13:00,23.2,13.5,29.68,ESE,112,2.0,2.0,66,0.00,,,0.00,VWS V14.01,2013-01-09 02:13:00,
2013-01-08 21:14:00,23.2,13.5,29.68,ESE,112,2.0,2.0,66,0.00,,,0.00,VWS V14.01,2013-01-09 02:14:00,
2013-01-08 21:15:00,23.2,13.5,29.68,ESE,112,2.0,2.0,66,0.00,,,0.00,VWS V14.01,2013-01-09 02:15:00,
2013-01-08 21:16:00,23.2,13.5,29.68,ESE,112,2.0,2.0,66,0.00,,,0.00,VWS V14.01,2013-01-09 02:16:00,
2013-01-08 21:17:00,23.0,13.7,29.68,ESE,112,2.0,2.0,67,0.00,,,0.00,VWS V14.01,2013-01-09 02:17:00,
2013-01-08 21:18:00,23.0,13.7,29.68,ESE,112,2.0,2.0,67,0.00,,,0.00,VWS V14.01,2013-01-09 02:18:00,
2013-01-08 21:19:00,23.0,13.7,29.68,ESE,112,2.0,2.0,67,0.00,,,0.00,VWS V14.01,2013-01-09 02:19:00,
2013-01-08 21:20:00,23.0,13.7,29.68,ESE,112,2.0,2.0,67,0.00,,,0.00,VWS V14.01,2013-01-09 02:20:00,
2013-01-08 21:21:00,23.2,13.5,29.68,ESE,112,2.0,2.0,66,0.00,,,0.00,VWS V14.01,2013-01-09 02:21:00,
2013-01-08 21:22:00,23.2,13.5,29.68,ESE,112,2.0,2.0,66,0.00,,,0.00,VWS V14.01,2013-01-09 02:22:00,
2013-01-08 21:23:00,23.0,13.4,29.68,ESE,112,2.0,2.0,66,0.00,,,0.00,VWS V14.01,2013-01-09 02:23:00,
2013-01-08 21:24:00,23.0,13.4,29.68,ESE,112,2.0,2.0,66,0.00,,,0.00,VWS V14.01,2013-01-09 02:24:00,
2013-01-08 21:25:00,23.0,13.4,29.68,ESE,112,2.0,2.0,66,0.00,,,0.00,VWS V14.01,2013-01-09 02:25:00,
2013-01-08 21:26:00,23.0,13.4,29.68,ESE,112,2.0,2.0,66,0.00,,,0.00,VWS V14.01,2013-01-09 02:26:00,
2013-01-08 21:27:00,23.0,13.4,29.68,ESE,112,2.0,2.0,66,0.00,,,0.00,VWS V14.01,2013-01-09 02:27:00,
2013-01-08 21:28:00,23.0,13.4,29.68,ESE,112,2.0,2.0,66,0.00,,,0.00,VWS V14.01,2013-01-09 02:28:00,
2013-01-08 21:29:00,23.0,13.4,29.68,West,270,0.0,2.0,66,0.00,,,0.00,VWS V14.01,2013-01-09 02:29:00,
2013-01-08 21:30:00,23.0,13.4,29.68,West,270,0.0,0.0,66,0.00,,,0.00,VWS V14.01,2013-01-09 02:30:00,
2013-01-08 21:31:00,22.8,13.2,29.68,West,270,0.0,0.0,66,0.00,,,0.00,VWS V14.01,2013-01-09 02:31:00,
2013-01-08 21:32:00,22.8,13.2,29.68,West,270,0.0,0.0,66,0.00,,,0.00,VWS V14.01,2013-01-09 02:32:00,
2013-01-08 21:33:00,22.8,13.2,29.68,ENE,68,0.9,0.9,66,0.00,,,0.00,VWS V14.01,2013-01-09 02:33:00,
2013-01-08 21:34:00,22.8,13.2,29.68,ENE,68,0.9,0.9,66,0.00,,,0.00,VWS V14.01,2013-01-09 02:34:00,
2013-01-08 21:35:00,22.8,13.2,29.68,ENE,68,0.9,0.9,66,0.00,,,0.00,VWS V14.01,2013-01-09 02:35:00,
2013-01-08 21:36:00,22.8,13.2,29.68,ENE,68,0.9,0.9,66,0.00,,,0.00,VWS V14.01,2013-01-09 02:36:00,
2013-01-08 21:37:00,22.6,13.0,29.68,ENE,68,0.9,0.9,66,0.00,,,0.00,VWS V14.01,2013-01-09 02:37:00,
2013-01-08 21:38:00,22.6,13.0,29.65,ENE,68,0.9,0.9,66,0.00,,,0.00,VWS V14.01,2013-01-09 02:38:00,
2013-01-08 21:39:00,22.6,13.0,29.65,ENE,68,0.9,0.9,66,0.00,,,0.00,VWS V14.01,2013-01-09 02:39:00,
2013-01-08 21:40:00,22.6,13.0,29.65,East,90,0.0,0.9,66,0.00,,,0.00,VWS V14.01,2013-01-09 02:40:00,
2013-01-08 21:41:00,22.6,13.0,29.65,East,90,0.0,0.0,66,0.00,,,0.00,VWS V14.01,2013-01-09 02:41:00,
2013-01-08 21:42:00,22.6,13.0,29.65,East,90,0.0,0.0,66,0.00,,,0.00,VWS V14.01,2013-01-09 02:42:00,
2013-01-08 21:43:00,22.6,13.0,29.65,East,90,0.0,0.0,66,0.00,,,0.00,VWS V14.01,2013-01-09 02:43:00,
2013-01-08 21:44:00,22.8,13.5,29.65,East,90,0.0,0.0,67,0.00,,,0.00,VWS V14.01,2013-01-09 02:44:00,
2013-01-08 21:45:00,22.8,13.5,29.65,East,90,0.0,0.0,67,0.00,,,0.00,VWS V14.01,2013-01-09 02:45:00,
2013-01-08 21:46:00,22.6,13.4,29.65,East,90,0.0,0.0,67,0.00,,,0.00,VWS V14.01,2013-01-09 02:46:00,
2013-01-08 21:47:00,22.6,13.4,29.65,WSW,248,1.1,1.1,67,0.00,,,0.00,VWS V14.01,2013-01-09 02:47:00,
2013-01-08 21:48:00,22.6,13.0,29.65,WNW,292,0.0,1.1,66,0.00,,,0.00,VWS V14.01,2013-01-09 02:48:00,
2013-01-08 21:49:00,22.6,13.0,29.65,WNW,292,0.0,0.0,66,0.00,,,0.00,VWS V14.01,2013-01-09 02:49:00,
2013-01-08 21:50:00,22.6,13.0,29.65,West,270,0.0,0.0,66,0.00,,,0.00,VWS V14.01,2013-01-09 02:50:00,
2013-01-08 21:51:00,22.5,12.8,29.65,West,270,0.0,0.0,66,0.00,,,0.00,VWS V14.01,2013-01-09 02:51:00,
2013-01-08 21:52:00,22.5,12.8,29.65,West,270,0.0,0.0,66,0.00,,,0.00,VWS V14.01,2013-01-09 02:52:00,
2013-01-08 21:53:00,22.5,12.8,29.68,West,270,0.0,0.0,66,0.00,,,0.00,VWS V14.01,2013-01-09 02:53:00,
2013-01-08 21:54:00,22.5,12.8,29.68,West,270,0.0,0.0,66,0.00,,,0.00,VWS V14.01,2013-01-09 02:54:00,
2013-01-08 21:55:00,22.5,12.8,29.68,West,270,0.0,0.0,66,0.00,,,0.00,VWS V14.01,2013-01-09 02:55:00,
2013-01-08 21:56:00,22.3,13.0,29.68,WSW,248,0.0,0.0,67,0.00,,,0.00,VWS V14.01,2013-01-09 02:56:00,
2013-01-08 21:57:00,22.3,13.0,29.68,WSW,248,0.0,0.0,67,0.00,,,0.00,VWS V14.01,2013-01-09 02:57:00,
2013-01-08 21:58:00,22.6,13.4,29.68,West,270,0.0,0.0,67,0.00,,,0.00,VWS V14.01,2013-01-09 02:58:00,
2013-01-08 21:59:00,22.6,13.4,29.68,West,270,1.1,1.1,67,0.00,,,0.00,VWS V14.01,2013-01-09 02:59:00,
2013-01-08 22:00:00,22.6,13.4,29.68,West,270,0.0,1.1,67,0.00,,,0.00,VWS V14.01,2013-01-09 03:00:00,
2013-01-08 22:01:00,22.3,13.0,29.68,WSW,248,0.0,0.0,67,0.00,,,0.00,VWS V14.01,2013-01-09 03:01:00,
2013-01-08 22:02:00,22.3,13.0,29.68,WSW,248,1.3,1.3,67,0.00,,,0.00,VWS V14.01,2013-01-09 03:02:00,
2013-01-08 22:03:00,22.3,13.0,29.68,WSW,248,1.3,1.3,67,0.00,,,0.00,VWS V14.01,2013-01-09 03:03:00,
2013-01-08 22:04:00,22.3,13.0,29.68,WSW,248,2.5,2.5,67,0.00,,,0.00,VWS V14.01,2013-01-09 03:04:00,
2013-01-08 22:05:00,22.3,13.0,29.68,West,270,0.0,2.5,67,0.00,,,0.00,VWS V14.01,2013-01-09 03:05:00,
2013-01-08 22:06:00,22.3,13.0,29.68,NNE,22,1.6,1.6,67,0.00,,,0.00,VWS V14.01,2013-01-09 03:06:00,
2013-01-08 22:07:00,21.9,13.0,29.68,NNE,22,0.0,1.6,68,0.00,,,0.00,VWS V14.01,2013-01-09 03:07:00,
2013-01-08 22:08:00,21.9,13.0,29.68,NNE,22,0.0,0.0,68,0.00,,,0.00,VWS V14.01,2013-01-09 03:08:00,
2013-01-08 22:09:00,21.9,13.0,29.68,NNE,22,0.0,0.0,68,0.00,,,0.00,VWS V14.01,2013-01-09 03:09:00,
2013-01-08 22:10:00,21.9,13.0,29.68,NNE,22,0.9,0.9,68,0.00,,,0.00,VWS V14.01,2013-01-09 03:10:00,
2013-01-08 22:11:00,21.9,13.0,29.68,NNE,22,0.0,0.9,68,0.00,,,0.00,VWS V14.01,2013-01-09 03:11:00,
2013-01-08 22:12:00,21.9,13.0,29.68,NNE,22,0.0,0.0,68,0.00,,,0.00,VWS V14.01,2013-01-09 03:12:00,
2013-01-08 22:13:00,21.9,13.0,29.68,NNE,22,0.0,0.0,68,0.00,,,0.00,VWS V14.01,2013-01-09 03:13:00,
2013-01-08 22:14:00,21.9,13.0,29.68,NNE,22,0.0,0.0,68,0.00,,,0.00,VWS V14.01,2013-01-09 03:14:00,
2013-01-08 22:15:00,21.9,13.0,29.68,NNE,22,0.0,0.0,68,0.00,,,0.00,VWS V14.01,2013-01-09 03:15:00,
2013-01-08 22:16:00,21.9,13.0,29.68,NNE,22,0.0,0.0,68,0.00,,,0.00,VWS V14.01,2013-01-09 03:16:00,
2013-01-08 22:17:00,21.9,13.0,29.68,NNE,22,0.0,0.0,68,0.00,,,0.00,VWS V14.01,2013-01-09 03:17:00,
2013-01-08 22:18:00,21.9,13.0,29.68,NNE,22,0.0,0.0,68,0.00,,,0.00,VWS V14.01,2013-01-09 03:18:00,
2013-01-08 22:19:00,21.9,13.0,29.68,NNE,22,0.0,0.0,68,0.00,,,0.00,VWS V14.01,2013-01-09 03:19:00,
2013-01-08 22:20:00,21.9,13.0,29.68,NNE,22,0.0,0.0,68,0.00,,,0.00,VWS V14.01,2013-01-09 03:20:00,
2013-01-08 22:21:00,21.7,12.8,29.68,NNE,22,0.0,0.0,68,0.00,,,0.00,VWS V14.01,2013-01-09 03:21:00,
2013-01-08 22:22:00,21.7,12.8,29.68,NNE,22,0.0,0.0,68,0.00,,,0.00,VWS V14.01,2013-01-09 03:22:00,
2013-01-08 22:23:00,21.7,12.8,29.68,NNE,22,0.0,0.0,68,0.00,,,0.00,VWS V14.01,2013-01-09 03:23:00,
2013-01-08 22:24:00,21.7,12.8,29.68,WNW,292,0.0,0.0,68,0.00,,,0.00,VWS V14.01,2013-01-09 03:24:00,
2013-01-08 22:25:00,21.7,12.5,29.68,WNW,292,0.0,0.0,67,0.00,,,0.00,VWS V14.01,2013-01-09 03:25:00,
2013-01-08 22:26:00,21.9,13.0,29.68,WNW,292,0.0,0.0,68,0.00,,,0.00,VWS V14.01,2013-01-09 03:26:00,
2013-01-08 22:27:00,21.9,13.0,29.68,WNW,292,0.0,0.0,68,0.00,,,0.00,VWS V14.01,2013-01-09 03:27:00,
2013-01-08 22:28:00,21.7,12.8,29.68,WNW,292,0.0,0.0,68,0.00,,,0.00,VWS V14.01,2013-01-09 03:28:00,
2013-01-08 22:29:00,21.7,12.8,29.68,WNW,292,0.0,0.0,68,0.00,,,0.00,VWS V14.01,2013-01-09 03:29:00,
2013-01-08 22:30:00,21.7,12.8,29.68,WNW,292,0.0,0.0,68,0.00,,,0.00,VWS V14.01,2013-01-09 03:30:00,
2013-01-08 22:31:00,21.9,13.0,29.68,WNW,292,0.0,0.0,68,0.00,,,0.00,VWS V14.01,2013-01-09 03:31:00,
2013-01-08 22:32:00,21.9,13.0,29.68,WNW,292,0.0,0.0,68,0.00,,,0.00,VWS V14.01,2013-01-09 03:32:00,
2013-01-08 22:33:00,21.9,13.0,29.68,WNW,292,0.0,0.0,68,0.00,,,0.00,VWS V14.01,2013-01-09 03:33:00,
2013-01-08 22:34:00,21.7,12.8,29.68,WSW,248,0.0,0.0,68,0.00,,,0.00,VWS V14.01,2013-01-09 03:34:00,
2013-01-08 22:35:00,21.7,12.8,29.68,WSW,248,0.0,0.0,68,0.00,,,0.00,VWS V14.01,2013-01-09 03:35:00,
2013-01-08 22:36:00,21.7,12.8,29.68,WSW,248,0.0,0.0,68,0.00,,,0.00,VWS V14.01,2013-01-09 03:36:00,
2013-01-08 22:37:00,21.9,13.0,29.68,WSW,248,0.0,0.0,68,0.00,,,0.00,VWS V14.01,2013-01-09 03:37:00,
2013-01-08 22:38:00,21.9,13.0,29.71,WSW,248,0.0,0.0,68,0.00,,,0.00,VWS V14.01,2013-01-09 03:38:00,
2013-01-08 22:39:00,21.7,12.8,29.71,WSW,248,0.0,0.0,68,0.00,,,0.00,VWS V14.01,2013-01-09 03:39:00,
2013-01-08 22:40:00,21.7,12.8,29.71,WSW,248,0.0,0.0,68,0.00,,,0.00,VWS V14.01,2013-01-09 03:40:00,
2013-01-08 22:41:00,21.6,12.6,29.71,WSW,248,1.3,1.3,68,0.00,,,0.00,VWS V14.01,2013-01-09 03:41:00,
2013-01-08 22:42:00,21.6,12.6,29.71,WSW,248,0.0,1.3,68,0.00,,,0.00,VWS V14.01,2013-01-09 03:42:00,
2013-01-08 22:43:00,21.6,12.6,29.71,WSW,248,0.0,0.0,68,0.00,,,0.00,VWS V14.01,2013-01-09 03:43:00,
2013-01-08 22:44:00,21.4,12.5,29.71,West,270,0.0,0.0,68,0.00,,,0.00,VWS V14.01,2013-01-09 03:44:00,
2013-01-08 22:45:00,21.4,12.5,29.71,West,270,0.0,0.0,68,0.00,,,0.00,VWS V14.01,2013-01-09 03:45:00,
2013-01-08 22:46:00,21.2,12.3,29.71,NNE,22,0.0,0.0,68,0.00,,,0.00,VWS V14.01,2013-01-09 03:46:00,
2013-01-08 22:47:00,21.2,12.3,29.71,NNE,22,0.0,0.0,68,0.00,,,0.00,VWS V14.01,2013-01-09 03:47:00,
2013-01-08 22:48:00,21.0,12.5,29.71,NNE,22,0.0,0.0,69,0.00,,,0.00,VWS V14.01,2013-01-09 03:48:00,
2013-01-08 22:49:00,21.2,12.6,29.71,NNW,338,0.0,0.0,69,0.00,,,0.00,VWS V14.01,2013-01-09 03:49:00,
2013-01-08 22:50:00,21.2,12.6,29.71,NNW,338,0.0,0.0,69,0.00,,,0.00,VWS V14.01,2013-01-09 03:50:00,
2013-01-08 22:51:00,21.2,12.6,29.71,NNW,338,0.0,0.0,69,0.00,,,0.00,VWS V14.01,2013-01-09 03:51:00,
2013-01-08 22:52:00,21.2,12.6,29.71,West,270,0.0,0.0,69,0.00,,,0.00,VWS V14.01,2013-01-09 03:52:00,
2013-01-08 22:53:00,21.2,12.6,29.68,West,270,0.0,0.0,69,0.00,,,0.00,VWS V14.01,2013-01-09 03:53:00,
2013-01-08 22:54:00,21.2,12.6,29.68,West,270,0.0,0.0,69,0.00,,,0.00,VWS V14.01,2013-01-09 03:54:00,
2013-01-08 22:55:00,21.2,12.6,29.68,West,270,0.0,0.0,69,0.00,,,0.00,VWS V14.01,2013-01-09 03:55:00,
2013-01-08 22:56:00,21.2,12.6,29.68,West,270,0.0,0.0,69,0.00,,,0.00,VWS V14.01,2013-01-09 03:56:00,
2013-01-08 22:57:00,21.2,12.6,29.68,West,270,0.0,0.0,69,0.00,,,0.00,VWS V14.01,2013-01-09 03:57:00,
2013-01-08 22:58:00,21.2,12.3,29.68,NE,45,0.0,0.0,68,0.00,,,0.00,VWS V14.01,2013-01-09 03:58:00,
2013-01-08 22:59:00,21.2,12.3,29.68,NE,45,0.9,0.9,68,0.00,,,0.00,VWS V14.01,2013-01-09 03:59:00,
2013-01-08 23:00:00,20.8,12.0,29.68,NE,45,0.0,0.9,68,0.00,,,0.00,VWS V14.01,2013-01-09 04:00:00,
2013-01-08 23:01:00,20.8,12.0,29.68,NE,45,0.0,0.0,68,0.00,,,0.00,VWS V14.01,2013-01-09 04:01:00,
2013-01-08 23:02:00,20.8,12.0,29.68,NE,45,0.0,0.0,68,0.00,,,0.00,VWS V14.01,2013-01-09 04:02:00,
2013-01-08 23:03:00,20.8,12.0,29.68,NE,45,0.0,0.0,68,0.00,,,0.00,VWS V14.01,2013-01-09 04:03:00,
2013-01-08 23:04:00,21.0,12.1,29.68,NE,45,0.0,0.0,68,0.00,,,0.00,VWS V14.01,2013-01-09 04:04:00,
2013-01-08 23:05:00,21.2,12.3,29.68,NE,45,0.0,0.0,68,0.00,,,0.00,VWS V14.01,2013-01-09 04:05:00,
2013-01-08 23:06:00,21.2,12.3,29.68,NE,45,0.0,0.0,68,0.00,,,0.00,VWS V14.01,2013-01-09 04:06:00,
2013-01-08 23:07:00,21.2,12.3,29.68,NE,45,0.0,0.0,68,0.00,,,0.00,VWS V14.01,2013-01-09 04:07:00,
2013-01-08 23:08:00,21.2,12.3,29.68,NE,45,0.0,0.0,68,0.00,,,0.00,VWS V14.01,2013-01-09 04:08:00,
2013-01-08 23:09:00,20.8,12.3,29.68,NE,45,0.0,0.0,69,0.00,,,0.00,VWS V14.01,2013-01-09 04:09:00,
2013-01-08 23:10:00,20.8,12.3,29.68,NE,45,0.0,0.0,69,0.00,,,0.00,VWS V14.01,2013-01-09 04:10:00,
2013-01-08 23:11:00,20.7,12.1,29.68,NE,45,0.0,0.0,69,0.00,,,0.00,VWS V14.01,2013-01-09 04:11:00,
2013-01-08 23:12:00,20.7,12.1,29.68,NE,45,0.0,0.0,69,0.00,,,0.00,VWS V14.01,2013-01-09 04:12:00,
2013-01-08 23:13:00,20.7,12.1,29.68,NE,45,0.0,0.0,69,0.00,,,0.00,VWS V14.01,2013-01-09 04:13:00,
2013-01-08 23:14:00,20.7,12.1,29.68,NE,45,0.0,0.0,69,0.00,,,0.00,VWS V14.01,2013-01-09 04:14:00,
2013-01-08 23:15:00,20.7,12.1,29.68,NE,45,0.9,0.9,69,0.00,,,0.00,VWS V14.01,2013-01-09 04:15:00,
2013-01-08 23:16:00,20.3,11.8,29.68,NE,45,0.0,0.9,69,0.00,,,0.00,VWS V14.01,2013-01-09 04:16:00,
2013-01-08 23:17:00,20.3,11.8,29.68,NE,45,0.0,0.0,69,0.00,,,0.00,VWS V14.01,2013-01-09 04:17:00,
2013-01-08 23:18:00,20.3,11.8,29.68,NE,45,0.0,0.0,69,0.00,,,0.00,VWS V14.01,2013-01-09 04:18:00,
2013-01-08 23:19:00,20.3,11.8,29.68,NE,45,0.0,0.0,69,0.00,,,0.00,VWS V14.01,2013-01-09 04:19:00,
2013-01-08 23:20:00,20.3,11.8,29.68,NE,45,0.0,0.0,69,0.00,,,0.00,VWS V14.01,2013-01-09 04:20:00,
2013-01-08 23:21:00,20.7,12.1,29.68,NE,45,0.0,0.0,69,0.00,,,0.00,VWS V14.01,2013-01-09 04:21:00,
2013-01-08 23:22:00,20.7,12.1,29.68,NE,45,0.0,0.0,69,0.00,,,0.00,VWS V14.01,2013-01-09 04:22:00,
2013-01-08 23:23:00,21.0,12.5,29.71,NE,45,0.0,0.0,69,0.00,,,0.00,VWS V14.01,2013-01-09 04:23:00,
2013-01-08 23:24:00,21.0,12.5,29.71,NE,45,0.0,0.0,69,0.00,,,0.00,VWS V14.01,2013-01-09 04:24:00,
2013-01-08 23:25:00,20.8,12.3,29.71,NE,45,0.0,0.0,69,0.00,,,0.00,VWS V14.01,2013-01-09 04:25:00,
2013-01-08 23:26:00,20.7,12.1,29.71,NE,45,0.0,0.0,69,0.00,,,0.00,VWS V14.01,2013-01-09 04:26:00,
2013-01-08 23:27:00,20.7,12.1,29.71,NE,45,0.0,0.0,69,0.00,,,0.00,VWS V14.01,2013-01-09 04:27:00,
2013-01-08 23:28:00,20.5,11.9,29.71,NE,45,0.0,0.0,69,0.00,,,0.00,VWS V14.01,2013-01-09 04:28:00,
2013-01-08 23:29:00,20.5,11.9,29.71,NE,45,0.0,0.0,69,0.00,,,0.00,VWS V14.01,2013-01-09 04:29:00,
2013-01-08 23:30:00,20.5,11.9,29.71,NE,45,0.0,0.0,69,0.00,,,0.00,VWS V14.01,2013-01-09 04:30:00,
2013-01-08 23:31:00,20.5,11.9,29.71,NE,45,0.0,0.0,69,0.00,,,0.00,VWS V14.01,2013-01-09 04:31:00,
2013-01-08 23:32:00,20.5,11.9,29.71,WSW,248,0.0,0.0,69,0.00,,,0.00,VWS V14.01,2013-01-09 04:32:00,
2013-01-08 23:33:00,20.5,11.9,29.71,WSW,248,0.0,0.0,69,0.00,,,0.00,VWS V14.01,2013-01-09 04:33:00,
2013-01-08 23:34:00,20.5,11.9,29.71,WSW,248,0.0,0.0,69,0.00,,,0.00,VWS V14.01,2013-01-09 04:34:00,
2013-01-08 23:35:00,20.3,11.8,29.71,WSW,248,0.0,0.0,69,0.00,,,0.00,VWS V14.01,2013-01-09 04:35:00,
2013-01-08 23:36:00,20.3,11.8,29.71,WSW,248,0.0,0.0,69,0.00,,,0.00,VWS V14.01,2013-01-09 04:36:00,
2013-01-08 23:37:00,20.3,11.8,29.71,WNW,292,0.0,0.0,69,0.00,,,0.00,VWS V14.01,2013-01-09 04:37:00,
2013-01-08 23:38:00,20.3,11.8,29.71,WNW,292,0.0,0.0,69,0.00,,,0.00,VWS V14.01,2013-01-09 04:38:00,
2013-01-08 23:39:00,20.3,11.8,29.71,WNW,292,0.0,0.0,69,0.00,,,0.00,VWS V14.01,2013-01-09 04:39:00,
2013-01-08 23:40:00,20.3,11.8,29.71,WNW,292,0.0,0.0,69,0.00,,,0.00,VWS V14.01,2013-01-09 04:40:00,